Weather Roundup
Issued by NWS

Home | Current Version | Previous Version | Graphics & Text | Print | Product List | Glossary Off
Versions: 1 2 3 4 5 6 7 8 9 10 11 12 13 14 15 16 17 18 19 20 21 22 23 24 25 26 27 28 29 30 31 32 33 34 35 36 37 38 39 40 41 42 43 44 45 46 47 48 49 50

000
NZUS93 KARX 230859
HRRWXR

CURRENT HOURLY OBSERVATIONS ACROSS
MUCH OF THE UPPER MISSISSIPPI VALLEY
NATIONAL WEATHER SERVICE LA CROSSE WI
400 AM CDT WED JUL 23 2014


...SOUTHEAST MINNESOTA...


CITY           SKY/WX    TMP DP  RH WIND       PRES   REMARKS
ROCHESTER      CLEAR     61  56  83 N3        30.20S
ROCHESTER/MAYO FAIR      64  56  76 CALM      30.19S
WINONA         CLEAR     64  61  88 CALM      30.17S
AUSTIN         CLEAR     61  55  82 N3        30.19R
ALBERT LEA     CLEAR     61  55  82 N5        30.20R
DODGE CENTER   CLEAR     61  55  82 N5        30.20R
PRESTON        CLEAR     61  61 100 CALM      30.19S
OWATONNA       CLEAR     57  54  88 CALM      30.20R
FARIBAULT      CLEAR     61  54  77 CALM      30.20R
$$

...ELSEWHERE IN MINNESOTA...


CITY           SKY/WX    TMP DP  RH WIND       PRES   REMARKS
MINNEAPOLIS    CLEAR     65  57  75 N6        30.19R
INTNL FALLS    PTCLDY    53  52  96 CALM      30.24R
DULUTH         PTCLDY    58  52  80 N7        30.20R
RED WING       CLEAR     61  57  88 CALM      30.17S
REDWOOD FALLS  CLEAR     61  56  83 N3        30.22S
MANKATO        CLEAR     61  52  72 NW6       30.21R
WORTHINGTON    PTCLDY    57  54  88 N7        30.25S
FAIRMONT       CLEAR     57  52  82 N6        30.21S
$$

...SOUTHWEST WISCONSIN...


CITY           SKY/WX    TMP DP  RH WIND       PRES   REMARKS
LA CROSSE      CLEAR     65  58  78 N5        30.16R
PRAIRIE DU CHI CLEAR     67  57  69 N3        30.13S
BOSCOBEL       CLEAR     62  58  86 CALM      30.14R
LONE ROCK      NOT AVBL
PLATTEVILLE    CLEAR     63  59  87 N7        30.14R
FORT MC COY    CLEAR     56  55  94 CALM      30.17R
CAMP DOUGLAS   FOG       52  52 100 CALM      30.17R VSB 3/4
VIROQUA        FAIR      61  58  90 CALM      30.17S
WIS DELLS      CLEAR     62  56  82 NE5       30.14S
$$

...ELSEWHERE IN WISCONSIN...


CITY           SKY/WX    TMP DP  RH WIND       PRES   REMARKS
MILWAUKEE      PTCLDY    61  56  83 N12       30.11R
MADISON        CLEAR     63  57  81 N6        30.13S
GREEN BAY      CLEAR     59  56  89 N7        30.13S
EAU CLAIRE     CLEAR     59  58  96 CALM      30.17R
BLACK RVR FLS  FAIR      53  53 100 CALM      30.17R
MEDFORD        FOG       52  52  99 CALM      30.18R VSB 1/4
WAUSAU         CLEAR     58  56  93 NW3       30.16S
WIS RAPIDS     CLEAR     60  57  89 N7        30.17S
MARSHFIELD     CLEAR     58  56  93 CALM      30.17S
RICE LAKE      CLEAR     56  55  95 CALM      30.20S FOG
$$

...NORTHEAST IOWA...


CITY           SKY/WX    TMP DP  RH WIND       PRES   REMARKS
WATERLOO       CLEAR     63  60  90 N3        30.15R
DUBUQUE        CLEAR     66  61  84 NE8       30.13R
DECORAH        NOT AVBL
MASON CITY     CLEAR     58  55  90 NW6       30.20R
CHARLES CITY   CLEAR     63  59  88 N6        30.18R
OELWEIN        CLEAR     64  63  94 N6        30.17R
$$

...ELSEWHERE IN IOWA...


CITY           SKY/WX    TMP DP  RH WIND       PRES   REMARKS
DES MOINES     PTCLDY    70  59  68 N10       30.15R
IOWA CITY      CLEAR     71  65  81 N8        30.12S
FORT DODGE     CLEAR     61  55  82 N6        30.20S
MARSHALLTOWN   CLEAR     62  60  93 N6        30.15S
CEDAR RAPIDS   CLEAR     66  62  87 N7        30.12R
$$

...NORTHERN ILLINOIS...


CITY           SKY/WX    TMP DP  RH WIND       PRES   REMARKS
CHICAGO-OHARE  PTCLDY    66  53  63 N16G28    30.06F
DUPAGE         PTCLDY    64  57  78 NE13      30.06F
CHICAGO-MIDWAY CLOUDY    68  59  73 N16G28    30.05S
MOLINE         CLEAR     73  65  75 N7        30.07R
ROCKFORD       MOCLDY    67  60  78 E10       30.12S
STERLING       CLEAR     70  64  83 NE9       30.08R
PEORIA         PTCLDY    78  69  73 N8        30.02R
$$

NOTE: "FAIR" INDICATES FEW OR NO CLOUDS BELOW 12,000 FEET WITH NO
SIGNIFICANT WEATHER AND/OR OBSTRUCTIONS TO VISIBILITY. WIND
SPEEDS ARE IN MILES-PER-HOUR.



USA.gov is the U.S. government's official web portal to all federal, state and local government web resources and services.